Regional Weather Roundup
Issued by NWS Lake Charles, LA

Current Version | Previous Version | Text Only | Print | Product List | Glossary On
Versions: 1 2 3 4 5 6 7 8 9 10 11 12 13 14 15 16 17 18 19 20 21 22 23 24 25 26 27 28 29 30 31 32 33 34 35 36 37 38 39 40 41 42 43 44 45 46 47 48 49 50
706
ASUS44 KLCH 281910
RWRLCH
REGIONAL WEATHER ROUNDUP
NATIONAL WEATHER SERVICE LAKE CHARLES LA
200 PM CDT SUN AUG 28 2016

Note: "fair" indicates few or no clouds below 12,000 feet with no
significant weather and/or obstructions to visibility.


ACROSS SOUTHEAST TEXAS

CITY           SKY/WX    TMP DP  RH WIND       PRES   REMARKS
BEAUMONT       CLOUDY    84  77  79 NE10      29.97F
BEAUMONT CITY  FAIR      84  77  80 E6        29.99S THUNDER
ORANGE         TSTM      75  73  93 N5        30.00S
JASPER         HVY RAIN  84  77  78 CALM      30.01F
$$

ACROSS CENTRAL LOUISIANA

CITY           SKY/WX    TMP DP  RH WIND       PRES   REMARKS
LEESVILLE      PTSUNNY   89  74  60 NE8G17    29.99F
FULLERTON      FAIR      89  72  56 VRB6      29.97F
ALEXANDRIA INT PTSUNNY   85  75  72 E6        29.98F
ESLER FIELD    MOSUNNY   90  75  61 VRB6      30.00F HX 100
DERIDDER       FAIR      86  72  62 E6        30.01S
OAKDALE        CLOUDY    84  76  76 NE6       29.97F
OPELOUSAS      FAIR      86  72  62 E10       29.97F
$$

ACROSS SOUTHWEST AND SOUTH CENTRAL LOUISIANA

CITY           SKY/WX    TMP DP  RH WIND       PRES   REMARKS
SULPHUR        CLOUDY    78  76  94 CALM      29.98F THUNDER
LAKE CHARLES   TSTM      75  32  20 S5        29.97F
CHENNAULT INT  PTSUNNY   79  77  94 S7        29.98F
CAMERON PHI    NOT AVBL
DEQUINCY       TSTM      76  75  98 NE5G16    30.00R VSB 3/4
JENNINGS       NOT AVBL
LAFAYETTE      CLOUDY    82  76  81 S6        29.97F
NEW IBERIA     CLOUDY    81  74  79 E9        29.97F
ABBEVILLE      TSTM      75  74  97 CALM      29.97F
PATTERSON      CLOUDY    85  73  67 E10       29.99S
SALT POINT       N/A     86  74  67 VRB7      29.95S
$$

SELECTED SITES ACROSS THE REGION

CITY           SKY/WX    TMP DP  RH WIND       PRES   REMARKS
HOUSTON BUSH   CLOUDY    86  75  69 NE16      29.96F
HOUSTON HOBBY  CLOUDY    86  74  67 NE14      29.95F
GALVESTON      CLOUDY    85  76  74 NE17      29.95F
COLLEGE STAT   MOSUNNY   88  74  63 NE13      29.99F
CONROE         CLOUDY    86  73  65 NE8       29.98F
HUNTSVILLE     PTSUNNY   88  72  58 E6        30.00F
LUFKIN         CLOUDY    87  73  62 NE9       30.00F
SHREVEPORT     PTSUNNY   92  75  57 E12       30.01F HX 103
MONROE         MOSUNNY   91  74  57 NE7       30.03F HX 100
NATCHEZ MS     NOT AVBL
BATON ROUGE    MOSUNNY   88  72  58 E8        29.99F
N.O. INTL ARPT CLOUDY    86  74  67 E6        30.00S
SLIDELL        CLOUDY    84  77  79 NE5       30.00F
$$

MARINE REPORTS

STATION/POSITION TIME  SKY/WX   TEMP    WIND        PRES    VSBY
                                AIR SEA DIR/SP/G
                 (UTC)          (F)     (DEG/KT/KT) (MB)    (MI)
BUOY 30 S HIGH I 1850            80 85   30/ 14/ 17 1013.9F
WVE H/P(F/S)=  2/ 5

SEA RIM ST PARK  1900            83      80/ 12/ 14 1014.6F
PORT ARTHUR      1800               85   80/  4/  7 1015.2F
SABINE PASS N    1800            83 86   60/ 10/ 12 1016.3F
TEXAS POINT      NOT AVBL
CALCASIEU PASS   1800            81 85   90/  6/  9 1014.3F
LK CHARLES BEACH 1800            77 81              1015.8F
MARSH ISLAND     1800            83                   N/A
FRESH WATER LOCK 1800            84 85  110/ 12/ 17 1015.6F
AMERADA PASS     1800            84 84   90/ 10/ 12 1014.9F
$$




USA.gov is the U.S. government's official web portal to all federal, state and local government web resources and services.